星链-30882 (STARLINK-30882 )

导读

STARLINK-30882是美国太空探索技术公司(SpaceX)星链互联网卫星项目中的一员,于2023年11月20日发射入轨,属于低轨通信卫星。它是星链全球卫星互联网组网建设的组成部分,旨在为全球用户提供高速低延迟的宽带互联网接入服务,丰富星链星座的覆盖能力与服务容量。

Basic Information
目录编号:
58379
目录名称:
STARLINK-30882
国际标识:
2023-178F
轨道中心:
EARTH
卫星名称:
星链-30882
卫星全名:
星链-30882 (STARLINK-30882 )
卫星状态:
在轨 (已飞行941 天)
发射日期:
2023-11-20 UTC
国别 :
美国 (US)
星等 :
--
Orbit Information
数据来源 国际轨道数据 AOE轨道数据
星历时间 2026-06-17T20:10:57+0800
22小时前
查看轨道信息
2026-06-16T05:00:00+0800
2天前
查看轨道信息
半长轴 6840.899km 6840.9km
偏心率 0.0001317 0.0001316
轨道倾角 53.161° 53.162°
近地点辐角 105.046° 106.900°
升交点赤经 256.041° 263.680°
平近点角 255.069° 229.987°
近地点 461.861km 461.862km
远地点 463.663km 463.664km
周期 93.849分钟 93.849分钟
每日圈数 15.343803 15.343801
Detailed Information
固有亮度:
5
最大亮度:
0.3
卫星平台:
Starlink v2.0 mini
覆盖范围:
全球
运营商:
太空探索技术公司
运营商所在国:
美国
制造商(研发单位):
太空探索技术公司
制造商所在国:
美国
使用方式:
暂无
Satellite Introduction
星链(Starlink)计划是由太空探索技术公司(SpaceX)提出的一个巨型低轨卫星互联网星座项目,计划在2019年至2024年间在太空搭建由约1.2万颗卫星组成的“星链”网络,其中1584颗将部署在地球上空550千米处的近地轨道,并从2020年开始工作。该卫星仍在工作。
2D Orbit Map
3D Orbit Map
Orbit Altitude Analysis Chart
Orbit Inclination Analysis Chart
Orbit Comprehensive Analysis Chart
View Comprehensive Chart